Regional Weather Roundup
Issued by NWS Columbia, SC

Home | Current Version | Previous Version | Text Only | Print | Product List | Glossary On
Versions: 1 2 3 4 5 6 7 8 9 10 11 12 13 14 15 16 17 18 19 20 21 22 23 24 25 26 27 28 29 30 31 32 33 34 35 36 37 38 39 40 41 42 43 44 45 46 47 48 49 50
000
ASUS42 KCAE 042110
RWRCAE
REGIONAL WEATHER ROUNDUP
NATIONAL WEATHER SERVICE COLUMBIA SC
500 PM EDT MON MAY 04 2015

NOTE: "FAIR" INDICATES FEW OR NO CLOUDS BELOW 12,000 FEET WITH NO
SIGNIFICANT WEATHER AND/OR OBSTRUCTIONS TO VISIBILITY.

NOT ALL STATIONS ARE QUALITY CONTROLLED BY THE NATIONAL
WEATHER SERVICE. USE DATA WITH CAUTION...ESPECIALLY
DEWPOINT OBSERVATIONS.

SCZ001>056-GAZ040-063>065-077-042200-
...UPSTATE SOUTH CAROLINA...

CITY           SKY/WX    TMP DP  RH WIND       PRES   REMARKS
ANDERSON       MOSUNNY   81  50  33 SW8       30.26F
LIBERTY        PTCLDY    80  50  34 S8        30.25F
SPARTANBURG    MOSUNNY   82  46  28 SW8       30.25F
CLEMSON        SUNNY     82  48  30 CALM      30.27F
GREENVILLE     MOSUNNY   79  47  32 S7        30.27F
GREENWOOD      SUNNY     78  50  37 VRB5      30.27F
GREER          PTSUNNY   81  50  33 SW7       30.25F
ROCK HILL      PTSUNNY   80  49  33 S6        30.26F
CHESTER        CLEAR     82  43  24 SW3       30.27F
LAURENS        PTCLDY    79  59  50 SW3       30.26F


...CENTRAL SOUTH CAROLINA...

CITY           SKY/WX    TMP DP  RH WIND       PRES   REMARKS
COLUMBIA APT   MOSUNNY   82  47  29 SW3       30.24F
COLUMBIA OWENS MOSUNNY   83  47  28 VRB5      30.26F
DARLINGTON     SUNNY     81  48  32 E7        30.27F
FLORENCE       MOSUNNY   82  53  36 S16       30.27F
MCENTIRE ANGB  MOSUNNY   83  52  33 SE10      30.26F
ORANGEBURG     MOSUNNY   80  50  34 VRB7      30.27F
SUMTER SHAW    MOSUNNY   78  53  41 S6        30.25F
NEWBERRY       PTCLDY    81  50  34 SE5       30.29F
AIKEN          CLOUDY    77  46  33 E6        30.30F
BARNWELL       FAIR      81  55  41 SE12      30.26F
MANNING        FAIR      77  52  41 SE9       30.28S
CAMDEN         FAIR      82  46  28 S6        30.26F
LANCASTER      CLEAR     81  48  32 SW6       30.26F
WINNSBORO      CLEAR     81  46  30 S5        30.26F


...EASTERN AND COASTAL SOUTH CAROLINA...

CITY           SKY/WX    TMP DP  RH WIND       PRES   REMARKS
MYRTLE BEACH   SUNNY     77  55  47 S16       30.32F
N MYRTLE BCH   SUNNY     74  56  53 S12       30.31F
CONWAY         FAIR      79  54  41 SE7       30.30S
MARION         FAIR      79  50  36 S9        30.28S
HARTSVILLE     MOCLDY    82  46  28 S6        30.27F
FLORENCE       MOSUNNY   82  53  36 S16       30.27F
DARLINGTON     SUNNY     81  48  32 E7        30.27F
CHARLESTON APT MOSUNNY   77  52  41 S12G17    30.29F
MOUNT PLEASANT FAIR      75  55  50 MISG      30.29F
WALTERBORO     CLOUDY    72  54  53 SE7       30.29F
BEAUFORT       MOSUNNY   77  57  50 SE8G20    30.28F


...EASTERN GEORGIA...

CITY           SKY/WX    TMP DP  RH WIND       PRES   REMARKS
AUGUSTA BUSH F FAIR      81  53  37 E6        30.25F
AUGUSTA DANIEL PTSUNNY   82  48  30 E3        30.26F
THOMSON        MOSUNNY   81  56  43 CALM      30.30F
WASHINGTON     FAIR      82  57  42 CALM      30.26F
CLAXTON        CLOUDY    75  59  57 SE8       30.26S
SYLVANIA       CLOUDY    76  59  56 SE6       30.27F
STATESBORO       N/A     80  59  48 SE10      30.26F
SAVANNAH       MOSUNNY   78  54  43 E13G21    30.27F


...SOUTHERN NORTH CAROLINA...

CITY           SKY/WX    TMP DP  RH WIND       PRES   REMARKS
CHARLOTTE      MOSUNNY   81  48  31 SW12      30.26F
MONROE         MOSUNNY   80  49  33 SW5       30.25F
WADESBORO      MOCLDY    82  47  30 SW3       30.25F
ROCKINGHAM     CLOUDY    82  49  32 S8        30.26F
RUTHERFORDTON  MOSUNNY   80  49  33 SW10G21   30.26F
ASHEVILLE      PTSUNNY   74  46  36 S10       30.29F

$$


USA.gov is the U.S. government's official web portal to all federal, state and local government web resources and services.